[[{"header":{"parameterUnit":"m.s-1","parameterCategory":1,"la1":30.2991,"la2":30.254,"lo1":-89.0895,"lo2":-89.0444,"dy":0.0017,"dx":0.0017,"nx":28,"ny":28,"refTime":"2025-04-01T21:00:00:Z","depth":0,"parameterNumber":2,"parameterNumberName":"U-component_of_WINDS"},"data":[0,0,0,0,0,0,0,0,0,0,0,0,0,0,0,0,0,0,0,0,0,0,0,0,0,0,0,0,0,0,0,0,0,0,0,0,0,0,0,0,0,0,0,0,0,0,0,0,0,0,0,0,0,0,0,0,0,0,-5.2841,-5.284,0,-5.2754,-5.2753,-5.2752,-5.2547,-5.2542,-5.2538,-5.2534,-5.245,-5.2452,-5.2453,0,0,0,0,0,0,0,0,0,0,0,0,0,-5.2837,-5.2838,-5.2841,-5.284,-5.2839,-5.2754,-5.2753,-5.2751,-5.2547,-5.2542,-5.2537,-5.2532,-5.2449,-5.2451,-5.2454,0,0,0,0,0,0,0,0,0,0,0,0,0,-5.2803,-5.2838,-5.2841,-5.2726,-5.2715,-5.2754,-5.2753,-5.2751,-5.2549,-5.2542,-5.2536,-5.253,-5.2449,-5.2451,-5.2454,-5.2598,0,0,-5.2462,-5.2463,0,0,0,0,0,0,0,0,-5.2805,-5.2804,-5.2744,-5.2734,-5.2722,-5.2654,-5.272,-5.27,-5.255,-5.2612,-5.2534,-5.2527,-5.2524,-5.252,-5.2517,-5.2594,-5.2591,-5.2462,-5.2464,-5.2465,-5.2466,0,0,0,0,0,0,0,-5.2808,-5.2806,-5.2806,-5.2744,-5.273,-5.2682,-5.267,-5.2715,-5.2605,-5.2606,-5.2591,-5.2583,-5.2516,-5.2516,-5.2514,-5.2589,-5.2462,-5.2464,-5.2466,-5.2467,-5.2783,-5.279,0,0,0,0,0,0,-5.2826,-5.281,-5.2809,-5.2804,-5.2749,-5.2687,-5.2674,-5.2683,-5.2604,-5.2586,-5.2589,-5.2574,-5.2514,-5.2511,-5.251,-5.2675,-5.2465,-5.2467,-5.2469,-5.2777,-5.2785,-5.2792,0,0,0,0,0,0,-5.2827,-5.2828,-5.2813,-5.2802,-5.2797,-5.2694,-5.2706,-5.2684,-5.2683,-5.2591,-5.2571,-5.2608,-5.2509,-5.2507,-5.2578,-5.2669,-5.2468,-5.2471,-5.2768,-5.2779,-5.2789,-5.3006,0,0,0,0,0,0,-5.2828,-5.2829,-5.2881,-5.2805,-5.2798,-5.2881,-5.2711,-5.2687,-5.2688,-5.2667,-5.2603,-5.2587,-5.2504,-5.2575,-5.2581,-5.2669,-5.2473,-5.276,-5.2773,-5.2785,-5.299,-5.3022,-5.305,0,0,0,0,0,-5.2828,-5.2947,-5.2885,-5.2886,-5.2861,-5.2886,-5.2882,-5.2783,-5.2696,-5.2748,-5.269,-5.2589,-5.2659,-5.2584,-5.2589,-5.268,-5.2754,-5.2769,-5.2784,-5.2977,-5.3016,-5.3049,0,0,0,0,0,0,-5.3037,-5.2934,-5.2865,-5.2962,-5.2934,-5.2851,-5.2914,-5.2828,-5.2825,-5.2806,-5.2685,-5.2673,-5.2762,-5.2727,-5.2646,-5.2817,-5.269,-5.2707,-5.2835,-5.2872,-5.2901,-5.2907,-5.2475,0,0,0,0,0,-5.3094,-5.3121,-5.3031,-5.3126,-5.3115,-5.3018,-5.3025,-5.2952,-5.2919,-5.2906,-5.2852,-5.2826,-5.2842,-5.2855,-5.2864,-5.2985,-5.2969,-5.305,-5.308,-5.3105,-5.3121,-5.3184,-5.3219,-5.2843,-5.2843,-5.2842,0,0,-5.3213,-5.316,-5.3185,-5.3166,-5.3136,-5.3169,-5.3009,-5.3051,-5.3075,-5.2913,-5.2976,-5.2937,-5.29,-5.2997,-5.3037,-5.2972,-5.3222,-5.3124,-5.3145,-5.3147,-5.3204,-5.324,-5.3271,-5.2853,-5.2851,-5.285,0,0,-5.3445,-5.3408,-5.3483,-5.3457,-5.3413,-5.3348,-5.3367,-5.3298,-5.3265,-5.3327,-5.3207,-5.3236,-5.3265,-5.3244,-5.3237,-5.3467,-5.3375,-5.3474,-5.363,-5.3693,-5.3723,-5.3748,-5.3831,-5.3863,-5.349,-5.3491,-5.3491,0,-5.3598,-5.3641,-5.3533,-5.3582,-5.3579,-5.3434,-5.3511,-5.3491,-5.3454,-5.3456,-5.3383,-5.3419,-5.3384,-5.3475,-5.3531,-5.353,-5.355,-5.348,-5.3727,-5.3752,-5.3774,-5.3852,-5.3883,-5.3503,-5.3502,-5.3501,-5.3499,0,-5.3832,-5.3865,-5.3931,-5.3898,-5.3902,-5.3966,-5.387,-5.3888,-5.3815,-5.3759,-5.3827,-5.3779,-5.3778,-5.3794,-5.3724,-5.3877,-5.3838,-5.3748,-5.3618,-5.3824,-5.3895,-5.3924,-5.3521,-5.3517,-5.3513,-5.351,0,0,-5.4191,-5.4099,-5.4126,-5.411,-5.4053,-5.4077,-5.4136,-5.4133,-5.4152,-5.4133,-5.418,-5.421,-5.4127,-5.412,-5.4047,-5.4103,-5.429,-5.4005,-5.4003,-5.406,-5.4457,-5.4525,-5.4561,-5.4229,-5.4234,-5.4238,-5.4461,0,-5.4409,-5.4501,-5.4408,-5.452,-5.455,-5.4415,-5.4466,-5.4439,-5.4389,-5.4409,-5.4355,-5.4379,-5.4267,-5.4262,-5.4311,-5.4256,-5.4368,-5.4239,-5.4273,-5.4276,-5.4286,-5.4598,-5.4669,-5.4881,-5.4488,-5.4492,-5.4496,0,-5.4675,-5.4668,-5.4784,-5.4722,-5.4731,-5.4778,-5.477,-5.4791,-5.4758,-5.4718,-5.4713,-5.4624,-5.468,-5.4555,-5.4631,-5.4546,-5.4555,-5.4531,-5.4537,-5.4536,-5.4397,-5.4605,-5.4946,-5.4978,-5.4538,-5.4535,-5.4532,0,-5.4926,-5.4945,-5.5017,-5.5008,-5.4938,-5.4975,-5.4948,-5.4909,-5.4914,-5.4909,-5.4911,-5.4913,-5.4914,-5.4919,-5.4834,-5.4751,-5.4923,-5.479,-5.4892,-5.4895,-5.4933,-5.4932,-5.528,-5.4941,-5.494,-5.494,-5.4939,0,-5.5179,-5.5255,-5.5129,-5.5173,-5.5256,-5.5149,-5.5234,-5.5194,-5.5161,-5.5197,-5.5081,-5.5118,-5.5004,-5.503,-5.4965,-5.5039,-5.5041,-5.5011,-5.4993,-5.5021,-5.5025,-5.5025,-5.5008,-5.4948,-5.4946,-5.4945,-5.4943,0,-5.5472,-5.539,-5.5459,-5.5388,-5.5373,-5.5437,-5.5377,-5.5416,-5.536,-5.5408,-5.5413,-5.5326,-5.535,-5.5267,-5.5278,-5.5234,-5.5344,-5.5301,-5.5355,-5.5342,-5.5449,-5.544,-5.5809,-5.5852,-5.5486,-5.549,-5.5493,0,-5.5638,-5.5693,-5.5629,-5.5644,-5.5623,-5.5649,-5.5655,-5.5554,-5.5565,-5.5534,-5.5578,-5.5593,-5.5599,-5.5645,-5.5584,-5.5593,-5.555,-5.5679,-5.555,-5.5578,-5.5553,-5.555,-5.5556,-5.5705,-5.571,-5.5713,-5.5716,0,-5.5942,-5.59,-5.5911,-5.5911,-5.592,-5.5915,-5.5902,-5.5922,-5.5813,-5.5832,-5.5855,-5.5861,-5.5873,-5.589,-5.5886,-5.586,-5.5772,-5.5758,-5.5782,-5.5811,-5.584,-5.5826,-5.5427,-5.5749,-5.5746,-5.5743,-5.5742,-5.574,-5.6176,-5.622,-5.6182,-5.62,-5.618,-5.6171,-5.6205,-5.6155,-5.6172,-5.6173,-5.6113,-5.615,-5.6119,-5.6105,-5.6089,-5.6117,-5.6057,-5.6092,-5.6101,-5.6111,-5.613,-5.5836,-5.6116,-5.6115,-5.6114,-5.6113,-5.6112,0,-5.6475,-5.6445,-5.6462,-5.6448,-5.6463,-5.6378,-5.636,-5.6379,-5.6412,-5.639,-5.6399,-5.6428,-5.6445,-5.6387,-5.6397,-5.6431,-5.6391,-5.6437,-5.6433,-5.6429,-5.6182,-5.616,-5.6469,-5.6469,-5.6469,-5.6469,-5.6469,-5.6469,-5.6632,-5.6702,-5.6656,-5.6717,-5.6686,-5.672,-5.6717,-5.671,-5.6692,-5.6729,-5.6743,-5.6705,-5.6669,-5.6676,-5.6689,-5.6671,-5.6681,-5.6741,-5.671,-5.6481,-5.6446,-5.6413,-5.6391,-5.6744,-5.6744,-5.6954,-5.6956,-5.6957]},{"header":{"parameterUnit":"m.s-1","parameterCategory":1,"la1":30.2991,"la2":30.254,"lo1":-89.0895,"lo2":-89.0444,"dy":0.0017,"dx":0.0017,"nx":28,"ny":28,"refTime":"2025-04-01T21:00:00:Z","depth":0,"parameterNumber":3,"parameterNumberName":"V-component_of_WINDS"},"data":[0,0,0,0,0,0,0,0,0,0,0,0,0,0,0,0,0,0,0,0,0,0,0,0,0,0,0,0,0,0,0,0,0,0,0,0,0,0,0,0,0,0,0,0,0,0,0,0,0,0,0,0,0,0,0,0,0,0,3.0479,3.048,0,3.0497,3.0497,3.0497,3.0576,3.0578,3.058,3.0582,3.059,3.0589,3.0587,0,0,0,0,0,0,0,0,0,0,0,0,0,3.0508,3.0507,3.0479,3.048,3.048,3.0497,3.0497,3.0497,3.0576,3.0578,3.0581,3.0583,3.0591,3.0589,3.0587,0,0,0,0,0,0,0,0,0,0,0,0,0,3.0507,3.0507,3.0479,3.0522,3.0526,3.0497,3.0497,3.0497,3.0576,3.0578,3.0581,3.0584,3.0592,3.0589,3.0587,3.0516,0,0,3.058,3.0579,0,0,0,0,0,0,0,0,3.0507,3.0506,3.0515,3.0519,3.0523,3.0538,3.051,3.0503,3.0575,3.0556,3.0582,3.0585,3.057,3.057,3.0566,3.0517,3.0517,3.058,3.0578,3.0577,3.0577,0,0,0,0,0,0,0,3.0507,3.0506,3.0486,3.0515,3.052,3.0537,3.054,3.0509,3.0547,3.0558,3.0564,3.0565,3.0573,3.0568,3.0567,3.0517,3.058,3.0578,3.0576,3.0576,3.0411,3.0408,0,0,0,0,0,0,3.0502,3.0505,3.0485,3.0487,3.0522,3.0535,3.0538,3.053,3.0547,3.0553,3.0563,3.0569,3.0571,3.057,3.0568,3.0486,3.0577,3.0575,3.0574,3.0414,3.0411,3.0407,0,0,0,0,0,0,3.0503,3.05,3.0485,3.0498,3.0497,3.0531,3.0521,3.0529,3.0525,3.0551,3.0557,3.0552,3.0573,3.0571,3.0529,3.0487,3.0574,3.0572,3.0418,3.0413,3.0409,3.0322,0,0,0,0,0,0,3.0503,3.0499,3.0474,3.0497,3.0496,3.0448,3.0519,3.0527,3.0522,3.053,3.0543,3.0547,3.0575,3.0532,3.0527,3.0486,3.057,3.0421,3.0416,3.041,3.0329,3.0315,3.0303,0,0,0,0,0,3.0504,3.0447,3.0472,3.047,3.0466,3.0445,3.0445,3.048,3.0518,3.0492,3.0509,3.0547,3.0494,3.0527,3.0522,3.0479,3.0424,3.0417,3.0411,3.0334,3.0318,3.0304,0,0,0,0,0,0,3.0414,3.045,3.0479,3.0428,3.0434,3.0459,3.0427,3.0461,3.0454,3.0461,3.0503,3.0505,3.0457,3.0465,3.0502,3.0413,3.0465,3.0457,3.0409,3.0394,3.0381,3.0379,3.0568,0,0,0,0,0,3.039,3.0373,3.0404,3.0356,3.0357,3.0392,3.0384,3.0412,3.0417,3.0419,3.0433,3.0435,3.0419,3.0407,3.0394,3.0331,3.0335,3.03,3.0287,3.0276,3.0268,3.0235,3.022,3.0385,3.0385,3.0385,0,0,3.0336,3.0354,3.034,3.0338,3.0346,3.0325,3.0392,3.0367,3.0352,3.0414,3.0376,3.0387,3.0392,3.034,3.0318,3.0345,3.0224,3.0268,3.0259,3.0256,3.0227,3.0211,3.0197,3.0381,3.0381,3.0382,0,0,3.0229,3.0241,3.0203,3.021,3.0222,3.0246,3.0236,3.0257,3.0268,3.0232,3.0278,3.026,3.0231,3.0233,3.023,3.0127,3.0161,3.0121,3.0054,3.0022,3.0009,2.9997,2.9959,2.9945,3.0113,3.0113,3.0113,0,3.016,3.0133,3.0177,3.015,3.0148,3.0208,3.0168,3.0172,3.0177,3.0173,3.0205,3.0172,3.0179,3.0128,3.0104,3.01,3.0089,3.0118,3.0008,2.9997,2.9987,2.9951,2.9936,3.0108,3.0109,3.0109,3.011,0,3.0048,3.0028,2.9996,3.0004,2.9998,2.9964,3.0002,2.999,3.0019,3.0039,3.0001,3.0013,3.0004,2.9994,3.0021,2.9947,2.9964,3.0001,3.0054,2.9965,2.9932,2.9919,3.0101,3.0103,3.0104,3.0105,0,0,2.988,2.9917,2.9903,2.9908,2.9927,2.9912,2.9881,2.9876,2.9864,2.9867,2.984,2.9817,2.9852,2.9849,2.9877,2.9849,2.9766,2.9889,2.989,2.9865,2.9685,2.9655,2.9638,2.979,2.9788,2.9786,2.9684,0,2.9777,2.9729,2.9769,2.9712,2.9695,2.9753,2.9726,2.9734,2.9752,2.9738,2.9758,2.974,2.9789,2.9788,2.9763,2.9781,2.973,2.9789,2.9763,2.9762,2.9758,2.9622,2.959,2.9493,2.9671,2.9669,2.9668,0,2.9648,2.9649,2.9591,2.9616,2.961,2.9586,2.9584,2.9571,2.9581,2.9597,2.9595,2.9631,2.9601,2.9656,2.9614,2.9654,2.9646,2.9653,2.9651,2.9647,2.9707,2.9612,2.9463,2.9447,2.9648,2.9649,2.9651,0,2.9531,2.9517,2.9481,2.9484,2.9512,2.9493,2.9503,2.9517,2.9511,2.951,2.9506,2.95,2.9495,2.9489,2.9522,2.9559,2.9475,2.9533,2.9485,2.9484,2.9462,2.9462,2.9306,2.946,2.9461,2.9461,2.9461,0,2.9409,2.9371,2.9429,2.9406,2.9366,2.9413,2.937,2.9386,2.9398,2.9378,2.9428,2.9408,2.9454,2.9438,2.9463,2.9424,2.9422,2.9432,2.9439,2.9426,2.9425,2.942,2.9426,2.9457,2.9458,2.9459,2.9459,0,2.9269,2.9307,2.9271,2.9303,2.931,2.9278,2.9304,2.9283,2.9307,2.9281,2.9278,2.9313,2.9298,2.9331,2.9319,2.9336,2.9281,2.9299,2.9278,2.9282,2.9232,2.9235,2.9065,2.9045,2.9214,2.9212,2.9211,0,2.9188,2.9161,2.9191,2.9183,2.9191,2.9177,2.9174,2.9219,2.9212,2.9223,2.9201,2.919,2.9184,2.9156,2.9179,2.917,2.9187,2.9128,2.9185,2.9174,2.9184,2.9184,2.9181,2.9115,2.9113,2.9111,2.911,0,2.904,2.9061,2.9054,2.9055,2.9049,2.9051,2.9056,2.9046,2.9094,2.9084,2.907,2.9066,2.9056,2.9044,2.9041,2.9049,2.9086,2.9093,2.9081,2.9066,2.9055,2.9059,2.9243,2.9095,2.9097,2.9098,2.9099,2.9099,2.8926,2.8904,2.8923,2.8914,2.8924,2.8928,2.8911,2.8934,2.8924,2.8922,2.8949,2.8929,2.8941,2.8942,2.8947,2.8931,2.8957,2.894,2.8935,2.893,2.8921,2.906,2.8931,2.8931,2.8932,2.8932,2.8932,0,2.8778,2.8794,2.8786,2.8794,2.8787,2.8828,2.8836,2.8826,2.8809,2.8819,2.8813,2.8797,2.8787,2.8811,2.8804,2.8786,2.8803,2.8783,2.8783,2.8784,2.8899,2.8909,2.8769,2.8769,2.8769,2.8769,2.8769,2.8769,2.8701,2.8668,2.8691,2.8662,2.8678,2.8662,2.8663,2.8666,2.8674,2.8656,2.8649,2.8666,2.8681,2.8676,2.8667,2.8675,2.8669,2.8642,2.8654,2.876,2.8776,2.8791,2.8801,2.864,2.864,2.8541,2.854,2.8539]}]]